Home > Weather > Salt Lake City > Past weeks

Flag for USA Past Weather in Salt Lake City, Utah, USA — Yesterday and Last 2 Weeks

Now
99 °F

Sunny.


Feels Like: 94 °F
Forecast: 73 / 99 °F
Wind: No wind

Location: Salt Lake City International Airport

Current Time: Jul 27, 2016 at 7:10:16 PM

Latest Report: Jul 27, 2016 at 6:54 PM


Visibility: 10 mi

Pressure: 29.83 "Hg (25.82 "Hg at 1312m altitude)

Humidity: 8%

Dew Point: 27 °F

Location of Salt Lake CityLocation

Past Weather in Salt Lake City — Graph

°F

Salt Lake City Temperature Yesterday

Maximum temperature yesterday: 103 °F (at 2:54 PM)
Minimum temperature yesterday: 78 °F (at 5:54 AM)
Average temperature yesterday: 90 °F

High & Low Weather Summary for the Past Weeks

 TemperatureHumidityPressure
High103 °F (Jul 26, 2:54 PM)45% (Jul 17, 1:54 AM)30.09 "Hg (Jul 17, 1:54 AM)
Low64 °F (Jul 13, 5:54 AM)6% (Jul 15, 5:54 PM)29.65 "Hg (Jul 15, 8:54 PM)
Average85 °F21%29.84 "Hg
* Reported Jul 12 5:54 PM — Jul 27 5:54 PM, Salt Lake City, Weather by CustomWeather, © 2016

Note: Actual official high and low records may vary slightly from our data, if they occured in-between our weather recording intervals... More about our weather records

Advertising

Salt Lake City Weather History for the Previous 24 Hours

Scroll right to see more
 ConditionsComfort  
Time TempWeatherWind HumidityBarometerVisibility
5:54 PM
Wed, Jul 27
100 °FPassing clouds.No wind7%29.85 "Hg10 mi
4:54 PM101 °FPassing clouds.12 mph8%29.86 "Hg10 mi
3:54 PM100 °FPassing clouds.9 mph8%29.88 "Hg10 mi
2:54 PM99 °FPassing clouds.7 mph9%29.90 "Hg10 mi
1:54 PM99 °FPassing clouds.14 mph9%29.91 "Hg10 mi
12:54 PM97 °FSunny.5 mph8%29.92 "Hg10 mi
11:54 AM94 °FSunny.No wind11%29.93 "Hg10 mi
10:54 AM91 °FSunny.No wind13%29.93 "Hg10 mi
9:54 AM86 °FSunny.5 mph19%29.93 "Hg10 mi
8:54 AM82 °FSunny.5 mph22%29.92 "Hg10 mi
7:54 AM77 °FSunny.9 mph29%29.90 "Hg10 mi
6:54 AM72 °FClear.7 mph31%29.90 "Hg10 mi
5:54 AM71 °FClear.9 mph35%29.88 "Hg10 mi
4:54 AM72 °FPassing clouds.No wind30%29.86 "Hg10 mi
3:54 AM74 °FClear.3 mph29%29.85 "Hg10 mi
2:54 AM74 °FClear.3 mph28%29.84 "Hg10 mi
1:54 AM75 °FClear.7 mph22%29.84 "Hg10 mi
12:54 AM80 °FClear.8 mph17%29.83 "Hg10 mi
11:54 PM
Tue, Jul 26
81 °FClear.3 mph20%29.82 "Hg10 mi
10:54 PM85 °FClear.7 mph13%29.83 "Hg10 mi
9:54 PM87 °FClear.8 mph13%29.78 "Hg10 mi
8:54 PM94 °FPassing clouds.3 mph8%29.76 "Hg10 mi
7:54 PM98 °FPassing clouds.7 mph6%29.76 "Hg10 mi
Weather by CustomWeather, © 2016

See weather overviewHow to use our weather pages